STARLINK-2690 (48480 NORAD) Tracking and Keplerian Element Data

This shows tracking and keplerian element data for the satellite.

Feedback or suggestion? Click here.




ElementValue
Catalog48480
NameSTARLINK-2690
Epoch Orbit1252
Epoch Day210.66612426
Epoch Year2021
RAAN201.4783
Inclination53.054
Eccentricity0.0001387
Argument of Perigee64.3384
Mean Anonmoly295.7748
Mean Motion15.06389135
Decay Rate3.65E-06
L11 48480U 21040BE 21210.66612426 .00000365 00000-0 43375-4 0 9990
L22 48480 53.0540 201.4783 0001387 64.3384 295.7748 15.06389135 12528

Live tracking and technical data element details for STARLINK-2690 (NORAD 48480). STARLINK-2690 can be tracked NOW for your location showing map with azimuth and elevation plus other details from your city location.

Track the satellite on the map from your city or location and see movement details for azimuth, elevation, latitude, longitude, range, height, and movement on the map or in text.







IsCatalogInMostPopularTable: catalog: 48480, numindb: 28
Update: records affected: 1



GetName: 48480 STARLINK-2690

Hit Count: updated at: Sat, 31 Jul 2021 14:39:08 GMT